User: anonymous   Login
Location: Santa Barbara
(34.4500°N, 119.7700°W)
Time: 01:14:49
(UTC-07:00)
Language:

Cosmos 1892 Rocket - Orbit

View from above orbital plane
View from above orbital plane
View from above satellite
View from above satellite

Ground track
Ground track

The orbit data is extracted from the following two-line orbital elements,

1 18422U 87088B   15115.37359587  .00000624  00000-0  74133-4 0  9992
2 18422 082.5137 191.2319 0020805 137.4629 271.5268 14.82693580485664
Epoch (UTC): 25 April 2015 08:57:58
Eccentricity: 0.0020805
inclination: 82.5137°
perigee height: 606 km
apogee height: 635 km
right ascension of ascending node: 191.2319°
argument of perigee: 137.4629°
revolutions per day: 14.82693580
mean anomaly at epoch: 271.5268°
orbit number at epoch: 48566

The dashed part of the orbit path shows where the satellite is in the earth's shadow,  

DLR